Time,TemperatureF,DewpointF,PressureIn,WindDirection,WindDirectionDegrees,WindSpeedMPH,WindSpeedGustMPH,Humidity,HourlyPrecipIn,Conditions,Clouds,dailyrainin,SoftwareType,DateUTC
2013-01-17 00:00:00,32.7,7.5,23.74,ENE,68,1.1,2.9,34,0.00,,---,0.00,VWS V14.01,2013-01-17 08:00:00,
2013-01-17 00:05:00,32.2,7.6,23.74,ESE,112,0.9,2.7,35,0.00,,---,0.00,VWS V14.01,2013-01-17 08:05:00,
2013-01-17 00:10:00,32.2,7.0,23.74,NNE,22,2.0,5.8,34,0.00,,---,0.00,VWS V14.01,2013-01-17 08:10:00,
2013-01-17 00:15:00,31.8,6.7,23.74,NNE,22,4.3,4.3,34,0.00,,---,0.00,VWS V14.01,2013-01-17 08:15:00,
2013-01-17 00:20:00,32.5,7.3,23.74,NE,45,2.7,2.7,34,0.00,,---,0.00,VWS V14.01,2013-01-17 08:20:00,
2013-01-17 00:25:00,31.6,6.5,23.74,NNE,22,1.6,3.1,34,0.00,,---,0.00,VWS V14.01,2013-01-17 08:25:00,
2013-01-17 00:30:00,32.5,6.6,23.74,East,90,2.7,2.7,33,0.00,,---,0.00,VWS V14.01,2013-01-17 08:30:00,
2013-01-17 00:35:00,32.5,6.6,23.77,NE,45,3.4,5.8,33,0.00,,---,0.00,VWS V14.01,2013-01-17 08:35:00,
2013-01-17 00:41:00,32.4,6.5,23.77,NE,45,2.5,6.3,33,0.00,,---,0.00,VWS V14.01,2013-01-17 08:41:00,
2013-01-17 00:46:00,32.2,6.3,23.77,NNE,22,3.8,3.8,33,0.00,,---,0.00,VWS V14.01,2013-01-17 08:46:00,
2013-01-17 00:51:00,32.4,6.5,23.77,ENE,68,1.3,3.1,33,0.00,,---,0.00,VWS V14.01,2013-01-17 08:51:00,
2013-01-17 00:56:00,31.8,6.0,23.77,North,0,0.0,0.0,33,0.00,,---,0.00,VWS V14.01,2013-01-17 08:56:00,
2013-01-17 01:02:00,30.2,4.6,23.77,North,0,0.0,0.0,33,0.00,,---,0.00,VWS V14.01,2013-01-17 09:02:00,
2013-01-17 01:07:00,29.3,4.4,23.77,North,0,0.0,0.0,34,0.00,,---,0.00,VWS V14.01,2013-01-17 09:07:00,
2013-01-17 01:12:00,28.2,3.5,23.77,North,0,0.0,0.0,34,0.00,,---,0.00,VWS V14.01,2013-01-17 09:12:00,
2013-01-17 01:18:00,27.1,2.5,23.77,ENE,68,0.0,0.0,34,0.00,,---,0.00,VWS V14.01,2013-01-17 09:18:00,
2013-01-17 01:23:00,26.4,2.5,23.77,East,90,0.0,0.0,35,0.00,,---,0.00,VWS V14.01,2013-01-17 09:23:00,
2013-01-17 01:29:00,25.5,1.7,23.77,NNE,22,2.2,2.2,35,0.00,,---,0.00,VWS V14.01,2013-01-17 09:29:00,
2013-01-17 01:35:00,24.8,1.6,23.77,NE,45,0.0,2.0,36,0.00,,---,0.00,VWS V14.01,2013-01-17 09:35:00,
2013-01-17 01:40:00,24.6,1.5,23.77,NE,45,0.0,0.0,36,0.00,,---,0.00,VWS V14.01,2013-01-17 09:40:00,
2013-01-17 01:45:00,24.4,1.3,23.77,NNW,338,0.0,0.9,36,0.00,,---,0.00,VWS V14.01,2013-01-17 09:45:00,
2013-01-17 01:50:00,24.1,1.0,23.77,ENE,68,2.5,2.7,36,0.00,,---,0.00,VWS V14.01,2013-01-17 09:50:00,
2013-01-17 01:55:00,23.7,1.3,23.77,NE,45,1.6,1.6,37,0.00,,---,0.00,VWS V14.01,2013-01-17 09:55:00,
2013-01-17 02:00:00,23.5,1.1,23.77,NE,45,2.5,2.7,37,0.00,,---,0.00,VWS V14.01,2013-01-17 10:00:00,
2013-01-17 02:05:00,23.0,1.2,23.77,NE,45,3.1,3.4,38,0.00,,---,0.00,VWS V14.01,2013-01-17 10:05:00,
2013-01-17 02:10:00,22.8,1.0,23.77,NNE,22,1.1,2.2,38,0.00,,---,0.00,VWS V14.01,2013-01-17 10:10:00,
2013-01-17 02:15:00,22.8,1.0,23.77,NNE,22,0.0,0.0,38,0.00,,---,0.00,VWS V14.01,2013-01-17 10:15:00,
2013-01-17 02:20:00,22.6,1.4,23.74,NNE,22,0.0,0.0,39,0.00,,---,0.00,VWS V14.01,2013-01-17 10:20:00,
2013-01-17 02:25:00,22.5,1.3,23.74,NNE,22,0.0,0.0,39,0.00,,---,0.00,VWS V14.01,2013-01-17 10:25:00,
2013-01-17 02:30:00,22.3,1.1,23.74,NNE,22,0.0,0.0,39,0.00,,---,0.00,VWS V14.01,2013-01-17 10:30:00,
2013-01-17 02:35:00,21.9,0.8,23.74,NNE,22,0.0,0.0,39,0.00,,---,0.00,VWS V14.01,2013-01-17 10:35:00,
2013-01-17 02:40:00,21.9,0.8,23.74,NNW,338,0.0,0.0,39,0.00,,---,0.00,VWS V14.01,2013-01-17 10:40:00,
2013-01-17 02:45:00,21.4,0.8,23.74,ENE,68,2.5,2.5,40,0.00,,---,0.00,VWS V14.01,2013-01-17 10:45:00,
2013-01-17 02:50:00,21.2,0.7,23.74,NNE,22,0.0,0.9,40,0.00,,---,0.00,VWS V14.01,2013-01-17 10:50:00,
2013-01-17 02:55:00,21.2,1.2,23.74,WNW,292,0.0,0.0,41,0.00,,---,0.00,VWS V14.01,2013-01-17 10:55:00,
2013-01-17 03:00:00,21.0,1.0,23.74,SSW,202,0.0,0.0,41,0.00,,---,0.00,VWS V14.01,2013-01-17 11:00:00,
2013-01-17 03:05:00,20.7,0.7,23.74,WSW,248,0.0,0.0,41,0.00,,---,0.00,VWS V14.01,2013-01-17 11:05:00,
2013-01-17 03:10:00,20.3,0.4,23.74,NNE,22,0.0,0.0,41,0.00,,---,0.00,VWS V14.01,2013-01-17 11:10:00,
2013-01-17 03:15:00,20.1,0.7,23.74,ENE,68,0.0,2.2,42,0.00,,---,0.00,VWS V14.01,2013-01-17 11:15:00,
2013-01-17 03:20:00,20.1,0.7,23.74,North,0,0.0,0.0,42,0.00,,---,0.00,VWS V14.01,2013-01-17 11:20:00,
2013-01-17 03:25:00,19.9,1.1,23.74,WSW,248,0.0,0.0,43,0.00,,---,0.00,VWS V14.01,2013-01-17 11:25:00,
2013-01-17 03:30:00,19.6,0.7,23.74,NE,45,1.6,1.6,43,0.00,,---,0.00,VWS V14.01,2013-01-17 11:30:00,
2013-01-17 03:36:00,19.4,0.6,23.74,SE,135,0.0,2.2,43,0.00,,---,0.00,VWS V14.01,2013-01-17 11:36:00,
2013-01-17 03:41:00,19.4,0.6,23.74,NNE,22,2.0,2.0,43,0.00,,---,0.00,VWS V14.01,2013-01-17 11:41:00,
2013-01-17 03:46:00,19.6,1.2,23.74,SSE,158,1.1,3.1,44,0.00,,---,0.00,VWS V14.01,2013-01-17 11:46:00,
2013-01-17 03:51:00,19.2,0.9,23.74,North,0,1.1,1.1,44,0.00,,---,0.00,VWS V14.01,2013-01-17 11:51:00,
2013-01-17 03:56:00,19.2,0.9,23.74,NNE,22,0.0,1.1,44,0.00,,---,0.00,VWS V14.01,2013-01-17 11:56:00,
2013-01-17 04:01:00,19.0,0.7,23.74,NE,45,0.0,2.2,44,0.00,,---,0.00,VWS V14.01,2013-01-17 12:01:00,
2013-01-17 04:06:00,19.0,0.7,23.74,SSE,158,0.0,0.0,44,0.00,,---,0.00,VWS V14.01,2013-01-17 12:06:00,
2013-01-17 04:11:00,18.9,0.6,23.74,SSE,158,0.0,0.0,44,0.00,,---,0.00,VWS V14.01,2013-01-17 12:11:00,
2013-01-17 04:16:00,19.0,0.7,23.74,SSW,202,0.0,0.0,44,0.00,,---,0.00,VWS V14.01,2013-01-17 12:16:00,
2013-01-17 04:21:00,18.3,0.6,23.74,NE,45,2.9,2.9,45,0.00,,---,0.00,VWS V14.01,2013-01-17 12:21:00,
2013-01-17 04:26:00,19.0,1.2,23.74,NE,45,0.0,0.9,45,0.00,,---,0.00,VWS V14.01,2013-01-17 12:26:00,
2013-01-17 04:31:00,18.9,1.0,23.74,SSE,158,0.0,0.0,45,0.00,,---,0.00,VWS V14.01,2013-01-17 12:31:00,
2013-01-17 04:36:00,18.3,0.6,23.74,SSW,202,2.2,2.2,45,0.00,,---,0.00,VWS V14.01,2013-01-17 12:36:00,
2013-01-17 04:41:00,18.3,1.0,23.74,ENE,68,0.0,2.5,46,0.00,,---,0.00,VWS V14.01,2013-01-17 12:41:00,
2013-01-17 04:46:00,18.3,1.0,23.74,NNE,22,2.0,2.0,46,0.00,,---,0.00,VWS V14.01,2013-01-17 12:46:00,
2013-01-17 04:51:00,18.3,1.0,23.71,North,0,0.9,2.5,46,0.00,,---,0.00,VWS V14.01,2013-01-17 12:51:00,
2013-01-17 04:56:00,18.0,0.7,23.71,NNE,22,4.3,4.3,46,0.00,,---,0.00,VWS V14.01,2013-01-17 12:56:00,
2013-01-17 05:01:00,18.3,1.5,23.71,SSE,158,2.5,2.5,47,0.00,,---,0.00,VWS V14.01,2013-01-17 13:01:00,
2013-01-17 05:06:00,18.1,1.3,23.71,West,270,1.6,2.2,47,0.00,,---,0.00,VWS V14.01,2013-01-17 13:06:00,
2013-01-17 05:11:00,17.8,1.0,23.71,ENE,68,0.0,0.0,47,0.00,,---,0.00,VWS V14.01,2013-01-17 13:11:00,
2013-01-17 05:16:00,17.1,0.8,23.71,SSW,202,0.9,1.3,48,0.00,,---,0.00,VWS V14.01,2013-01-17 13:16:00,
2013-01-17 05:21:00,17.1,0.8,23.71,South,180,0.0,0.0,48,0.00,,---,0.00,VWS V14.01,2013-01-17 13:21:00,
2013-01-17 05:26:00,16.7,0.4,23.71,NE,45,0.0,2.5,48,0.00,,---,0.00,VWS V14.01,2013-01-17 13:26:00,
2013-01-17 05:31:00,16.9,0.6,23.71,South,180,2.0,2.5,48,0.00,,---,0.00,VWS V14.01,2013-01-17 13:31:00,
2013-01-17 05:36:00,16.9,0.6,23.71,ENE,68,1.6,2.0,48,0.00,,---,0.00,VWS V14.01,2013-01-17 13:36:00,
2013-01-17 05:41:00,16.7,0.4,23.71,NNE,22,2.9,2.9,48,0.00,,---,0.00,VWS V14.01,2013-01-17 13:41:00,
2013-01-17 05:46:00,16.9,1.0,23.71,ENE,68,0.0,0.0,49,0.00,,---,0.00,VWS V14.01,2013-01-17 13:46:00,
2013-01-17 05:51:00,16.9,1.0,23.71,WSW,248,0.0,1.3,49,0.00,,---,0.00,VWS V14.01,2013-01-17 13:51:00,
2013-01-17 05:56:00,16.7,0.9,23.71,WSW,248,0.0,0.0,49,0.00,,---,0.00,VWS V14.01,2013-01-17 13:56:00,
2013-01-17 06:01:00,16.5,0.3,23.71,NE,45,0.0,0.0,48,0.00,,---,0.00,VWS V14.01,2013-01-17 14:01:00,
2013-01-17 06:06:00,16.3,0.5,23.71,SSE,158,3.1,3.1,49,0.00,,---,0.00,VWS V14.01,2013-01-17 14:06:00,
2013-01-17 06:11:00,16.2,0.4,23.71,NNE,22,2.0,2.0,49,0.00,,---,0.00,VWS V14.01,2013-01-17 14:11:00,
2013-01-17 06:16:00,16.2,1.2,23.71,ENE,68,2.7,3.1,51,0.00,,---,0.00,VWS V14.01,2013-01-17 14:16:00,
2013-01-17 06:21:00,16.9,1.9,23.71,NNE,22,1.3,2.0,51,0.00,,---,0.00,VWS V14.01,2013-01-17 14:21:00,
2013-01-17 06:26:00,17.2,1.8,23.71,WNW,292,0.9,1.6,50,0.00,,---,0.00,VWS V14.01,2013-01-17 14:26:00,
2013-01-17 06:31:00,16.7,1.7,23.71,NE,45,3.4,3.4,51,0.00,,---,0.00,VWS V14.01,2013-01-17 14:31:00,
2013-01-17 06:37:00,18.0,3.3,23.74,NE,45,2.7,2.7,52,0.00,,---,0.00,VWS V14.01,2013-01-17 14:37:00,
2013-01-17 06:42:00,18.7,3.6,23.74,ENE,68,0.0,3.1,51,0.00,,---,0.00,VWS V14.01,2013-01-17 14:42:00,
2013-01-17 06:47:00,19.2,4.1,23.74,NE,45,1.6,2.2,51,0.00,,---,0.00,VWS V14.01,2013-01-17 14:47:00,
2013-01-17 06:52:00,19.4,3.8,23.74,NNE,22,3.1,3.1,50,0.00,,---,0.00,VWS V14.01,2013-01-17 14:52:00,
2013-01-17 06:57:00,20.1,4.5,23.74,North,0,3.6,4.0,50,0.00,,---,0.00,VWS V14.01,2013-01-17 14:57:00,
2013-01-17 07:02:00,20.8,5.1,23.74,NNE,22,3.4,3.6,50,0.00,,---,0.00,VWS V14.01,2013-01-17 15:02:00,
2013-01-17 07:07:00,21.7,4.6,23.74,NNE,22,3.1,3.1,47,0.00,,---,0.00,VWS V14.01,2013-01-17 15:07:00,
2013-01-17 07:12:00,22.1,4.5,23.74,NNE,22,2.0,3.4,46,0.00,,---,0.00,VWS V14.01,2013-01-17 15:12:00,
2013-01-17 07:17:00,22.6,4.5,23.74,ENE,68,2.5,2.5,45,0.00,,---,0.00,VWS V14.01,2013-01-17 15:17:00,
2013-01-17 07:22:00,22.6,4.5,23.74,SW,225,0.0,0.0,45,0.00,,---,0.00,VWS V14.01,2013-01-17 15:22:00,
2013-01-17 07:27:00,22.5,4.3,23.74,North,0,2.0,2.2,45,0.00,,---,0.00,VWS V14.01,2013-01-17 15:27:00,
2013-01-17 07:32:00,22.1,4.0,23.74,NNE,22,1.1,2.2,45,0.00,,---,0.00,VWS V14.01,2013-01-17 15:32:00,
2013-01-17 07:37:00,21.9,3.4,23.74,NE,45,0.0,0.0,44,0.00,,---,0.00,VWS V14.01,2013-01-17 15:37:00,
2013-01-17 07:42:00,22.1,3.5,23.74,NNE,22,2.9,2.9,44,0.00,,---,0.00,VWS V14.01,2013-01-17 15:42:00,
2013-01-17 07:47:00,22.1,3.5,23.74,NNE,22,1.1,2.7,44,0.00,,---,0.00,VWS V14.01,2013-01-17 15:47:00,
2013-01-17 07:52:00,22.8,4.2,23.74,NNE,22,2.0,2.0,44,0.00,,---,0.00,VWS V14.01,2013-01-17 15:52:00,
2013-01-17 07:57:00,23.5,4.8,23.74,ENE,68,2.7,2.7,44,0.00,,---,0.00,VWS V14.01,2013-01-17 15:57:00,
2013-01-17 08:02:00,24.4,5.7,23.74,ENE,68,0.0,0.0,44,0.00,,---,0.00,VWS V14.01,2013-01-17 16:02:00,
2013-01-17 08:07:00,26.1,7.2,23.74,NE,45,1.3,1.3,44,0.00,,---,0.00,VWS V14.01,2013-01-17 16:07:00,
2013-01-17 08:12:00,27.7,8.1,23.74,NE,45,0.0,0.0,43,0.00,,---,0.00,VWS V14.01,2013-01-17 16:12:00,
2013-01-17 08:17:00,29.5,9.2,23.74,NNE,22,0.0,0.0,42,0.00,,---,0.00,VWS V14.01,2013-01-17 16:17:00,
2013-01-17 08:22:00,30.9,10.0,23.74,WSW,248,1.3,1.6,41,0.00,,---,0.00,VWS V14.01,2013-01-17 16:22:00,
2013-01-17 08:27:00,31.8,10.8,23.74,SW,225,1.6,2.2,41,0.00,,---,0.00,VWS V14.01,2013-01-17 16:27:00,
2013-01-17 08:32:00,33.1,12.0,23.74,SW,225,1.1,1.1,41,0.00,,---,0.00,VWS V14.01,2013-01-17 16:32:00,
2013-01-17 08:37:00,33.8,12.6,23.74,SW,225,0.0,0.9,41,0.00,,---,0.00,VWS V14.01,2013-01-17 16:37:00,
2013-01-17 08:42:00,34.5,12.7,23.74,ESE,112,0.0,0.0,40,0.00,,---,0.00,VWS V14.01,2013-01-17 16:42:00,
2013-01-17 08:47:00,35.6,13.1,23.74,South,180,2.7,3.8,39,0.00,,---,0.00,VWS V14.01,2013-01-17 16:47:00,
2013-01-17 08:52:00,36.9,14.2,23.74,SSW,202,1.3,2.2,39,0.00,,---,0.00,VWS V14.01,2013-01-17 16:52:00,
2013-01-17 08:57:00,37.6,11.1,23.74,NE,45,5.4,5.4,33,0.00,,---,0.00,VWS V14.01,2013-01-17 16:57:00,
2013-01-17 09:02:00,38.7,10.6,23.74,NE,45,2.9,4.9,31,0.00,,---,0.00,VWS V14.01,2013-01-17 17:02:00,
2013-01-17 09:07:00,39.7,10.9,23.74,NE,45,0.0,0.0,30,0.00,,---,0.00,VWS V14.01,2013-01-17 17:07:00,
2013-01-17 09:12:00,40.3,11.3,23.74,East,90,0.0,0.0,30,0.00,,---,0.00,VWS V14.01,2013-01-17 17:12:00,
2013-01-17 09:17:00,40.6,10.9,23.74,ENE,68,4.0,6.5,29,0.00,,---,0.00,VWS V14.01,2013-01-17 17:17:00,
2013-01-17 09:22:00,41.0,10.4,23.74,ENE,68,3.4,5.4,28,0.00,,---,0.00,VWS V14.01,2013-01-17 17:22:00,
2013-01-17 09:27:00,41.4,10.7,23.74,NNE,22,4.0,5.6,28,0.00,,---,0.00,VWS V14.01,2013-01-17 17:27:00,
2013-01-17 09:32:00,41.9,11.2,23.74,North,0,1.1,4.0,28,0.00,,---,0.00,VWS V14.01,2013-01-17 17:32:00,
2013-01-17 09:37:00,42.4,11.7,23.74,ENE,68,2.9,5.8,28,0.00,,---,0.00,VWS V14.01,2013-01-17 17:37:00,
2013-01-17 09:42:00,42.4,11.7,23.74,NNW,338,3.1,3.1,28,0.00,,---,0.00,VWS V14.01,2013-01-17 17:42:00,
2013-01-17 09:47:00,43.0,12.1,23.74,ENE,68,2.7,4.9,28,0.00,,---,0.00,VWS V14.01,2013-01-17 17:47:00,
2013-01-17 09:52:00,43.3,12.4,23.74,NNE,22,1.3,2.5,28,0.00,,---,0.00,VWS V14.01,2013-01-17 17:52:00,
2013-01-17 09:57:00,43.2,12.3,23.74,NE,45,4.3,4.3,28,0.00,,---,0.00,VWS V14.01,2013-01-17 17:57:00,
2013-01-17 10:02:00,43.7,12.8,23.74,NE,45,1.3,2.9,28,0.00,,---,0.00,VWS V14.01,2013-01-17 18:02:00,
2013-01-17 10:07:00,44.1,13.1,23.74,NE,45,4.9,4.9,28,0.00,,---,0.00,VWS V14.01,2013-01-17 18:07:00,
2013-01-17 10:12:00,43.9,12.9,23.74,NE,45,0.0,3.6,28,0.00,,---,0.00,VWS V14.01,2013-01-17 18:12:00,
2013-01-17 10:18:00,44.6,12.7,23.74,NW,315,0.0,1.1,27,0.00,,---,0.00,VWS V14.01,2013-01-17 18:18:00,
2013-01-17 10:23:00,45.1,13.2,23.74,ENE,68,1.6,3.1,27,0.00,,---,0.00,VWS V14.01,2013-01-17 18:23:00,
2013-01-17 10:28:00,45.0,13.0,23.74,ENE,68,2.7,3.4,27,0.00,,---,0.00,VWS V14.01,2013-01-17 18:28:00,
2013-01-17 10:33:00,45.7,13.6,23.74,NNE,22,3.6,4.3,27,0.00,,---,0.00,VWS V14.01,2013-01-17 18:33:00,
2013-01-17 10:38:00,44.8,11.1,23.74,ENE,68,4.3,4.9,25,0.00,,---,0.00,VWS V14.01,2013-01-17 18:38:00,
2013-01-17 10:44:00,45.0,13.0,23.74,NNW,338,3.4,3.6,27,0.00,,---,0.00,VWS V14.01,2013-01-17 18:44:00,
2013-01-17 10:49:00,45.1,13.2,23.74,North,0,3.4,3.4,27,0.00,,---,0.00,VWS V14.01,2013-01-17 18:49:00,
2013-01-17 10:54:00,45.1,13.2,23.74,ENE,68,3.8,5.6,27,0.00,,---,0.00,VWS V14.01,2013-01-17 18:54:00,
2013-01-17 10:59:00,44.6,12.7,23.74,NNE,22,2.0,3.6,27,0.00,,---,0.00,VWS V14.01,2013-01-17 18:59:00,
2013-01-17 11:04:00,45.1,13.2,23.74,North,0,0.0,2.2,27,0.00,,---,0.00,VWS V14.01,2013-01-17 19:04:00,
2013-01-17 11:09:00,45.5,13.5,23.74,NNE,22,2.7,2.9,27,0.00,,---,0.00,VWS V14.01,2013-01-17 19:09:00,
2013-01-17 11:14:00,45.9,13.8,23.74,NE,45,1.1,2.7,27,0.00,,---,0.00,VWS V14.01,2013-01-17 19:14:00,
2013-01-17 11:19:00,46.2,14.1,23.74,NE,45,3.1,5.6,27,0.00,,---,0.00,VWS V14.01,2013-01-17 19:19:00,
2013-01-17 11:24:00,46.2,14.1,23.74,NNW,338,4.5,5.6,27,0.00,,---,0.00,VWS V14.01,2013-01-17 19:24:00,
2013-01-17 11:29:00,45.7,13.6,23.74,NNE,22,7.2,7.8,27,0.00,,---,0.00,VWS V14.01,2013-01-17 19:29:00,
2013-01-17 11:34:00,44.8,12.9,23.71,NE,45,4.0,4.0,27,0.00,,---,0.00,VWS V14.01,2013-01-17 19:34:00,
2013-01-17 11:39:00,44.6,13.5,23.71,ENE,68,2.0,4.9,28,0.00,,---,0.00,VWS V14.01,2013-01-17 19:39:00,
2013-01-17 11:44:00,44.4,13.4,23.71,NNW,338,4.5,7.4,28,0.00,,---,0.00,VWS V14.01,2013-01-17 19:44:00,
2013-01-17 11:49:00,44.2,13.2,23.74,NE,45,5.4,6.0,28,0.00,,---,0.00,VWS V14.01,2013-01-17 19:49:00,
2013-01-17 11:54:00,44.2,13.2,23.74,NNE,22,3.6,5.6,28,0.00,,---,0.00,VWS V14.01,2013-01-17 19:54:00,
2013-01-17 11:59:00,44.6,13.5,23.74,NNW,338,3.1,7.4,28,0.00,,---,0.00,VWS V14.01,2013-01-17 19:59:00,
2013-01-17 12:04:00,44.4,13.4,23.71,North,0,7.2,8.5,28,0.00,,---,0.00,VWS V14.01,2013-01-17 20:04:00,
2013-01-17 12:09:00,44.4,13.4,23.71,North,0,4.9,6.3,28,0.00,,---,0.00,VWS V14.01,2013-01-17 20:09:00,
2013-01-17 12:14:00,43.9,12.9,23.71,NE,45,1.1,5.4,28,0.00,,---,0.00,VWS V14.01,2013-01-17 20:14:00,
2013-01-17 12:19:00,43.7,12.8,23.71,NNE,22,4.9,6.5,28,0.00,,---,0.00,VWS V14.01,2013-01-17 20:19:00,
2013-01-17 12:24:00,43.7,12.8,23.71,NNE,22,3.6,4.0,28,0.00,,---,0.00,VWS V14.01,2013-01-17 20:24:00,
2013-01-17 12:29:00,43.3,12.4,23.71,ENE,68,3.1,6.3,28,0.00,,---,0.00,VWS V14.01,2013-01-17 20:29:00,
2013-01-17 12:34:00,43.3,12.4,23.71,NNW,338,3.1,6.7,28,0.00,,---,0.00,VWS V14.01,2013-01-17 20:34:00,
2013-01-17 12:39:00,43.7,12.8,23.71,NNE,22,6.0,7.4,28,0.00,,---,0.00,VWS V14.01,2013-01-17 20:39:00,
2013-01-17 12:44:00,43.3,12.4,23.71,NNE,22,7.2,7.2,28,0.00,,---,0.00,VWS V14.01,2013-01-17 20:44:00,
2013-01-17 12:49:00,44.4,14.2,23.71,North,0,5.4,7.4,29,0.00,,---,0.00,VWS V14.01,2013-01-17 20:49:00,
2013-01-17 12:54:00,43.7,12.8,23.71,North,0,7.8,7.8,28,0.00,,---,0.00,VWS V14.01,2013-01-17 20:54:00,
2013-01-17 12:59:00,43.3,12.4,23.71,NNE,22,5.6,7.4,28,0.00,,---,0.00,VWS V14.01,2013-01-17 20:59:00,
2013-01-17 13:04:00,43.0,12.1,23.71,NNE,22,5.8,5.8,28,0.00,,---,0.00,VWS V14.01,2013-01-17 21:04:00,
2013-01-17 13:09:00,42.4,12.4,23.71,NNE,22,6.0,6.3,29,0.00,,---,0.00,VWS V14.01,2013-01-17 21:09:00,
2013-01-17 13:14:00,42.4,12.4,23.71,NE,45,5.8,8.7,29,0.00,,---,0.00,VWS V14.01,2013-01-17 21:14:00,
2013-01-17 13:19:00,42.4,12.4,23.71,NNE,22,7.4,7.8,29,0.00,,---,0.00,VWS V14.01,2013-01-17 21:19:00,
2013-01-17 13:24:00,42.6,11.8,23.71,NE,45,4.3,7.6,28,0.00,,---,0.00,VWS V14.01,2013-01-17 21:24:00,
2013-01-17 13:29:00,42.8,12.0,23.71,ENE,68,3.8,5.8,28,0.00,,---,0.00,VWS V14.01,2013-01-17 21:29:00,
2013-01-17 13:34:00,42.6,12.6,23.71,NNE,22,4.7,7.4,29,0.00,,---,0.00,VWS V14.01,2013-01-17 21:34:00,
2013-01-17 13:39:00,42.6,11.8,23.71,NE,45,4.0,7.6,28,0.00,,---,0.00,VWS V14.01,2013-01-17 21:39:00,
2013-01-17 13:44:00,42.4,11.7,23.71,North,0,7.2,7.4,28,0.00,,---,0.00,VWS V14.01,2013-01-17 21:44:00,
2013-01-17 13:49:00,42.4,11.7,23.71,North,0,5.4,5.4,28,0.00,,---,0.00,VWS V14.01,2013-01-17 21:49:00,
2013-01-17 13:54:00,42.4,11.7,23.71,NW,315,3.4,6.3,28,0.00,,---,0.00,VWS V14.01,2013-01-17 21:54:00,
2013-01-17 13:59:00,42.8,12.0,23.71,NNE,22,5.8,7.4,28,0.00,,---,0.00,VWS V14.01,2013-01-17 21:59:00,